CW3846 Weather Reports


Display with metric or nautical units.
time (UTC)temp
F
wind
direction
speed
MPH
gust
MPH
rain 1hr
in
rain 24hr
in
rain mn
in
humidity
%
barometer
mb
20260902204555 101 0 0.0 1.0 0.00 0.00 0.00 23 1012.3
20260902204029 101 0 0.0 1.0 0.00 0.00 0.00 22 1012.4
20260902203528 101 0 0.0 1.0 0.00 0.00 0.00 23 1012.5
20260902203053 101 0 0.0 0.0 0.00 0.00 0.00 22 1012.6
20260902202531 101 0 0.0 0.0 0.00 0.00 0.00 22 1012.7
20260902202031 101 0 0.0 1.0 0.00 0.00 0.00 22 1012.9
20260902201553 101 0 0.0 1.0 0.00 0.00 0.00 21 1012.9
20260902201030 101 0 0.0 1.0 0.00 0.00 0.00 23 1012.9
20260902200535 100 0 0.0 0.0 0.00 0.00 0.00 22 1013.0
20260902200047 100 0 0.0 0.0 0.00 0.00 0.00 23 1013.0
20260902195531 100 0 0.0 0.0 0.00 0.00 0.00 23 1013.2
20260902195028 99 0 0.0 1.0 0.00 0.00 0.00 23 1013.2
20260902194546 99 0 0.0 1.0 0.00 0.00 0.00 23 1013.4
20260902194028 99 0 0.0 0.0 0.00 0.00 0.00 24 1013.4
20260902193529 99 0 0.0 0.0 0.00 0.00 0.00 24 1013.5
20260902193054 99 0 0.0 0.0 0.00 0.00 0.00 24 1013.5
20260902192528 99 0 0.0 0.0 0.00 0.00 0.00 24 1013.6
20260902192029 99 0 0.0 0.0 0.00 0.00 0.00 23 1013.7
20260902191552 99 0 0.0 0.0 0.00 0.00 0.00 23 1013.9
20260902191029 99 0 0.0 0.0 0.00 0.00 0.00 22 1013.9
20260902190531 99 0 0.0 0.0 0.00 0.00 0.00 23 1013.9
20260902190047 99 0 0.0 0.0 0.00 0.00 0.00 23 1014.0
20260902185530 99 0 0.0 0.0 0.00 0.00 0.00 23 1014.1
20260902185030 98 0 0.0 0.0 0.00 0.00 0.00 23 1014.2
20260902184554 98 0 0.0 0.0 0.00 0.00 0.00 23 1014.2
20260902184029 98 0 0.0 0.0 0.00 0.00 0.00 23 1014.3
20260902183530 98 0 0.0 0.0 0.00 0.00 0.00 23 1014.3
20260902183044 98 0 0.0 0.0 0.00 0.00 0.00 23 1014.3
20260902182533 98 0 0.0 0.0 0.00 0.00 0.00 23 1014.4
20260902182028 97 0 0.0 0.0 0.00 0.00 0.00 24 1014.5
20260902181554 97 0 0.0 0.0 0.00 0.00 0.00 25 1014.5
20260902181028 97 0 0.0 0.0 0.00 0.00 0.00 25 1014.7
20260902180529 96 0 0.0 0.0 0.00 0.00 0.00 25 1014.8
20260902180122 96 0 0.0 0.0 0.00 0.00 0.00 25 1014.7
20260902175528 96 0 0.0 0.0 0.00 0.00 0.00 26 1014.9
20260902175028 96 0 0.0 0.0 0.00 0.00 0.00 27 1014.8
20260902174553 95 0 0.0 0.0 0.00 0.00 0.00 27 1015.0
20260902174029 95 0 0.0 0.0 0.00 0.00 0.00 27 1015.0
20260902173531 95 0 0.0 0.0 0.00 0.00 0.00 27 1015.1
20260902173047 94 0 0.0 0.0 0.00 0.00 0.00 27 1015.1
20260902172532 94 0 0.0 0.0 0.00 0.00 0.00 28 1015.1
20260902172032 94 0 0.0 0.0 0.00 0.00 0.00 29 1015.0
20260902171547 93 0 0.0 0.0 0.00 0.00 0.00 28 1015.1
20260902171035 93 0 0.0 0.0 0.00 0.00 0.00 31 1015.1
20260902170533 93 0 0.0 0.0 0.00 0.00 0.00 29 1015.1
20260902170053 92 0 0.0 0.0 0.00 0.00 0.00 29 1015.1
20260902165532 92 0 0.0 0.0 0.00 0.00 0.00 29 1015.1
20260902165030 92 0 0.0 0.0 0.00 0.00 0.00 31 1015.2
20260902164548 92 0 0.0 0.0 0.00 0.00 0.00 31 1015.2
20260902164033 91 0 0.0 0.0 0.00 0.00 0.00 30 1015.2
20260902163533 91 0 0.0 0.0 0.00 0.00 0.00 30 1015.2
20260902163104 91 0 0.0 0.0 0.00 0.00 0.00 31 1015.1
20260902162530 91 0 0.0 0.0 0.00 0.00 0.00 31 1015.1
20260902162030 91 0 0.0 0.0 0.00 0.00 0.00 31 1015.0
20260902161559 91 0 0.0 1.0 0.00 0.00 0.00 32 1015.0
20260902161034 91 0 0.0 1.0 0.00 0.00 0.00 32 1015.1
20260902160532 91 0 0.0 1.0 0.00 0.00 0.00 33 1015.1
20260902160058 91 0 0.0 0.0 0.00 0.00 0.00 33 1014.9
20260902155532 90 0 0.0 0.0 0.00 0.00 0.00 35 1014.9
20260902155032 89 0 0.0 0.0 0.00 0.00 0.00 35 1014.9
20260902154550 89 0 0.0 0.0 0.00 0.00 0.00 36 1015.0
20260902154030 88 0 0.0 0.0 0.00 0.00 0.00 36 1015.0
20260902153533 88 0 0.0 0.0 0.00 0.00 0.00 38 1015.0
20260902153058 88 0 0.0 0.0 0.00 0.00 0.00 39 1014.9
20260902152531 88 0 0.0 0.0 0.00 0.00 0.00 39 1015.0
20260902152035 87 0 0.0 0.0 0.00 0.00 0.00 40 1014.9
20260902151554 87 0 0.0 0.0 0.00 0.00 0.00 41 1014.9
20260902151030 86 0 0.0 0.0 0.00 0.00 0.00 43 1014.7
20260902150530 86 0 0.0 0.0 0.00 0.00 0.00 43 1014.7
20260902150054 85 0 0.0 0.0 0.00 0.00 0.00 44 1014.7
20260902145531 85 0 0.0 0.0 0.00 0.00 0.00 45 1014.7
20260902145034 84 0 0.0 0.0 0.00 0.00 0.00 47 1014.5
20260902144553 84 0 0.0 0.0 0.00 0.00 0.00 48 1014.6
20260902144032 84 0 0.0 0.0 0.00 0.00 0.00 49 1014.5
20260902143534 84 0 0.0 0.0 0.00 0.00 0.00 48 1014.6
20260902143050 84 0 0.0 0.0 0.00 0.00 0.00 48 1014.6
20260902142530 84 0 0.0 0.0 0.00 0.00 0.00 47 1014.5
20260902142033 83 0 0.0 0.0 0.00 0.00 0.00 47 1014.4
20260902141552 83 0 0.0 0.0 0.00 0.00 0.00 48 1014.4
20260902141036 83 0 0.0 0.0 0.00 0.00 0.00 48 1014.4
20260902140817 83 0 0.0 0.0 0.00 0.00 0.00 50 1014.3
20260902140056 83 0 0.0 0.0 0.00 0.00 0.00 50 1014.4
20260902135529 83 0 0.0 0.0 0.00 0.00 0.00 49 1014.2
20260902135028 83 0 0.0 0.0 0.00 0.00 0.00 49 1014.2
20260902134555 83 0 0.0 0.0 0.00 0.00 0.00 48 1014.0
20260902134031 83 0 0.0 0.0 0.00 0.00 0.00 48 1014.0
20260902133528 83 0 0.0 0.0 0.00 0.00 0.00 48 1013.9
20260902133052 83 0 0.0 0.0 0.00 0.00 0.00 47 1013.9
20260902132527 83 0 0.0 0.0 0.00 0.00 0.00 47 1013.9
20260902132028 83 0 0.0 0.0 0.00 0.00 0.00 47 1013.8
20260902131547 83 0 0.0 0.0 0.00 0.00 0.00 47 1013.7
20260902131031 83 0 0.0 0.0 0.00 0.00 0.00 46 1013.7
20260902130536 84 0 0.0 0.0 0.00 0.00 0.00 45 1013.6
20260902125532 84 0 0.0 0.0 0.00 0.00 0.00 45 1013.5
20260902125031 84 0 0.0 0.0 0.00 0.00 0.00 44 1013.5
20260902124556 84 0 0.0 0.0 0.00 0.00 0.00 44 1013.4
20260902124027 84 0 0.0 0.0 0.00 0.00 0.00 44 1013.4
20260902123528 84 0 0.0 0.0 0.00 0.00 0.00 44 1013.4
20260902123056 84 0 0.0 0.0 0.00 0.00 0.00 43 1013.3
20260902122527 84 0 0.0 0.0 0.00 0.00 0.00 43 1013.3
20260902122029 84 0 0.0 0.0 0.00 0.00 0.00 43 1013.4
20260902121558 84 0 0.0 0.0 0.00 0.00 0.00 43 1013.4
20260902121028 85 0 0.0 0.0 0.00 0.00 0.00 42 1013.3
20260902120528 85 0 0.0 0.0 0.00 0.00 0.00 42 1013.3
20260902120055 85 0 0.0 0.0 0.00 0.00 0.00 42 1013.2
20260902115528 85 0 0.0 0.0 0.00 0.00 0.00 42 1013.2
20260902115032 85 0 0.0 0.0 0.00 0.00 0.00 42 1013.2
20260902114555 86 0 0.0 0.0 0.00 0.00 0.00 41 1013.2
20260902114031 86 0 0.0 0.0 0.00 0.00 0.00 41 1013.2
20260902113532 86 0 0.0 0.0 0.00 0.00 0.00 40 1013.1
20260902113100 86 0 0.0 0.0 0.00 0.00 0.00 40 1013.0
20260902112532 87 0 0.0 0.0 0.00 0.00 0.00 39 1013.0
20260902112032 87 0 0.0 0.0 0.00 0.00 0.00 39 1013.0
20260902111552 87 0 0.0 0.0 0.00 0.00 0.00 39 1012.9
20260902111031 87 0 0.0 0.0 0.00 0.00 0.00 39 1013.0
20260902110533 87 0 0.0 0.0 0.00 0.00 0.00 38 1012.9
20260902110048 87 0 0.0 0.0 0.00 0.00 0.00 38 1012.9
20260902105531 87 0 0.0 0.0 0.00 0.00 0.00 38 1013.0
20260902105031 87 0 0.0 0.0 0.00 0.00 0.00 38 1013.0
20260902104557 87 0 0.0 0.0 0.00 0.00 0.00 38 1012.9
20260902104030 87 0 0.0 0.0 0.00 0.00 0.00 38 1013.0
20260902103533 87 0 0.0 0.0 0.00 0.00 0.00 38 1013.1
20260902103051 87 0 0.0 0.0 0.00 0.00 0.00 38 1013.0
20260902102530 87 0 0.0 0.0 0.00 0.00 0.00 38 1013.0
20260902102032 87 0 0.0 0.0 0.00 0.00 0.00 38 1013.0
20260902101544 88 0 0.0 0.0 0.00 0.00 0.00 38 1013.0
20260902101031 88 0 0.0 0.0 0.00 0.00 0.00 38 1012.9
20260902100533 88 0 0.0 0.0 0.00 0.00 0.00 37 1013.0
20260902100109 88 0 0.0 0.0 0.00 0.00 0.00 37 1013.1
20260902095533 88 0 0.0 0.0 0.00 0.00 0.00 37 1013.1
20260902095030 88 0 0.0 0.0 0.00 0.00 0.00 37 1013.1
20260902094553 88 0 0.0 0.0 0.00 0.00 0.00 37 1013.1
20260902094030 88 0 0.0 0.0 0.00 0.00 0.00 37 1013.1
20260902093529 88 0 0.0 0.0 0.00 0.00 0.00 36 1013.0
20260902093057 88 0 0.0 0.0 0.00 0.00 0.00 36 1013.1
20260902092533 88 0 0.0 0.0 0.00 0.00 0.00 36 1013.0
20260902092032 88 0 0.0 0.0 0.00 0.00 0.00 36 1013.1
20260902091556 88 0 0.0 0.0 0.00 0.00 0.00 36 1013.0
20260902091033 89 0 0.0 0.0 0.00 0.00 0.00 36 1013.0
20260902090529 89 0 0.0 0.0 0.00 0.00 0.00 35 1012.9
20260902090053 89 0 0.0 0.0 0.00 0.00 0.00 35 1013.0
20260902085532 89 0 0.0 0.0 0.00 0.00 0.00 35 1013.0
20260902085033 89 0 0.0 0.0 0.00 0.00 0.00 35 1013.0
20260902084558 89 0 0.0 0.0 0.00 0.00 0.00 35 1013.1
20260902084034 89 0 0.0 0.0 0.00 0.00 0.00 34 1013.0
20260902083531 90 0 0.0 0.0 0.00 0.00 0.00 34 1013.1
20260902083047 90 0 0.0 0.0 0.00 0.00 0.00 34 1013.1
20260902082532 90 0 0.0 0.0 0.00 0.00 0.00 34 1013.1
20260902082030 90 0 0.0 0.0 0.00 0.00 0.00 34 1013.2
20260902081549 90 0 0.0 0.0 0.00 0.00 0.00 34 1013.2
20260902081029 90 0 0.0 0.0 0.00 0.00 0.00 34 1013.1
20260902080532 90 0 0.0 0.0 0.00 0.00 0.00 33 1013.1
20260902080056 90 0 0.0 0.0 0.00 0.00 0.00 33 1013.1
20260902075532 90 0 0.0 0.0 0.00 0.00 0.00 33 1013.2
20260902075032 90 0 0.0 0.0 0.00 0.00 0.00 33 1013.2
20260902074551 90 0 0.0 0.0 0.00 0.00 0.00 33 1013.1
20260902074031 90 0 0.0 0.0 0.00 0.00 0.00 34 1013.1
20260902073530 90 0 0.0 0.0 0.00 0.00 0.00 34 1013.1
20260902073053 90 0 0.0 0.0 0.00 0.00 0.00 34 1013.0
20260902072529 91 0 0.0 0.0 0.00 0.00 0.00 34 1013.0
20260902072030 91 0 0.0 0.0 0.00 0.00 0.00 34 1013.0
20260902071547 91 0 0.0 0.0 0.00 0.00 0.00 34 1012.9
20260902071029 91 0 0.0 0.0 0.00 0.00 0.00 34 1012.8
20260902070530 91 0 0.0 0.0 0.00 0.00 0.00 34 1012.8
20260902070047 91 0 0.0 0.0 0.00 0.00 0.00 34 1012.8
20260902065530 91 0 0.0 0.0 0.00 0.00 0.00 34 1012.8
20260902065031 91 0 0.0 0.0 0.00 0.00 0.00 34 1012.7
20260902064601 92 0 0.0 0.0 0.00 0.00 0.00 33 1012.6
20260902064029 92 0 0.0 0.0 0.00 0.00 0.00 33 1012.7
20260902063530 92 0 0.0 0.0 0.00 0.00 0.00 33 1012.6
20260902063052 92 0 0.0 0.0 0.00 0.00 0.00 33 1012.7
20260902062529 92 0 0.0 0.0 0.00 0.00 0.00 33 1012.7
20260902062030 92 0 0.0 0.0 0.00 0.00 0.00 33 1012.7
20260902061602 92 0 0.0 0.0 0.00 0.00 0.00 33 1012.7
20260902061031 92 0 0.0 0.0 0.00 0.00 0.00 32 1012.6
20260902060529 92 0 0.0 0.0 0.00 0.00 0.00 32 1012.7
20260902060049 92 0 0.0 0.0 0.00 0.00 0.00 32 1012.8
20260902055535 92 0 0.0 0.0 0.00 0.00 0.00 31 1012.8
20260902055030 92 0 0.0 0.0 0.00 0.00 0.00 31 1012.7
20260902054557 92 0 0.0 0.0 0.00 0.00 0.00 30 1012.7
20260902054029 92 0 0.0 0.0 0.00 0.00 0.00 29 1012.7
20260902053530 92 0 0.0 0.0 0.00 0.00 0.00 28 1012.7
20260902053052 92 0 0.0 0.0 0.00 0.00 0.00 28 1012.8
20260902052534 92 0 0.0 0.0 0.00 0.00 0.00 28 1012.8
20260902052033 92 0 0.0 0.0 0.00 0.00 0.00 28 1012.6
20260902051551 92 0 0.0 0.0 0.00 0.00 0.00 28 1012.7
20260902051030 92 0 0.0 0.0 0.00 0.00 0.00 28 1012.7
20260902050530 92 0 0.0 0.0 0.00 0.00 0.00 29 1012.6
20260902050055 92 0 0.0 0.0 0.00 0.00 0.00 30 1012.6
20260902045531 92 0 0.0 0.0 0.00 0.00 0.00 30 1012.5
20260902045029 92 0 0.0 0.0 0.00 0.00 0.00 29 1012.5
20260902044556 92 0 0.0 0.0 0.00 0.00 0.00 30 1012.3
20260902044032 93 0 0.0 0.0 0.00 0.00 0.00 30 1012.5
20260902043533 93 0 0.0 0.0 0.00 0.00 0.00 30 1012.5
20260902043100 93 0 0.0 0.0 0.00 0.00 0.00 30 1012.4
20260902042530 94 0 0.0 0.0 0.00 0.00 0.00 29 1012.3
20260902042031 94 0 0.0 0.0 0.00 0.00 0.00 28 1012.2
20260902041551 94 0 0.0 0.0 0.00 0.00 0.00 28 1012.0
20260902041034 94 0 0.0 0.0 0.00 0.00 0.00 30 1012.0
20260902040535 94 0 0.0 0.0 0.00 0.00 0.00 30 1011.8
20260902040059 94 0 0.0 0.0 0.00 0.00 0.00 30 1011.8
20260902035531 94 0 0.0 0.0 0.00 0.00 0.00 30 1011.8
20260902035029 94 0 0.0 0.0 0.00 0.00 0.00 30 1011.7
20260902034559 94 0 0.0 0.0 0.00 0.00 0.00 30 1011.6
20260902034032 95 0 0.0 0.0 0.00 0.00 0.00 30 1011.5
20260902033529 95 0 0.0 0.0 0.00 0.00 0.00 30 1011.4
20260902033102 95 0 0.0 0.0 0.00 0.00 0.00 30 1011.3
20260902032531 95 0 0.0 0.0 0.00 0.00 0.00 29 1011.3
20260902032029 95 0 0.0 0.0 0.00 0.00 0.00 29 1011.2
20260902031553 95 0 0.0 0.0 0.00 0.00 0.00 29 1011.1
20260902031031 95 0 0.0 0.0 0.00 0.00 0.00 29 1011.1
20260902030530 95 0 0.0 0.0 0.00 0.00 0.00 29 1011.0
20260902030050 96 0 0.0 0.0 0.00 0.00 0.00 29 1010.9
20260902025530 96 0 0.0 0.0 0.00 0.00 0.00 29 1010.9
20260902025032 96 0 0.0 0.0 0.00 0.00 0.00 29 1010.8
20260902024546 96 0 0.0 0.0 0.00 0.00 0.00 28 1010.8
20260902024041 96 0 0.0 0.0 0.00 0.00 0.00 28 1010.6
20260902023531 97 0 0.0 0.0 0.00 0.00 0.00 28 1010.7
20260902023055 97 0 0.0 0.0 0.00 0.00 0.00 27 1010.6
20260902022533 97 0 0.0 0.0 0.00 0.00 0.00 27 1010.6
20260902022032 97 0 0.0 0.0 0.00 0.00 0.00 27 1010.4
20260902021552 97 0 0.0 0.0 0.00 0.00 0.00 27 1010.5
20260902021032 97 0 0.0 0.0 0.00 0.00 0.00 28 1010.4
20260902020533 97 0 0.0 0.0 0.00 0.00 0.00 28 1010.4
20260902020049 98 0 0.0 0.0 0.00 0.00 0.00 27 1010.5
20260902015529 98 0 0.0 0.0 0.00 0.00 0.00 27 1010.4
20260902015031 98 0 0.0 0.0 0.00 0.00 0.00 27 1010.3
20260902014549 98 0 0.0 0.0 0.00 0.00 0.00 26 1010.3
20260902014034 98 0 0.0 0.0 0.00 0.00 0.00 26 1010.3
20260902013531 99 0 0.0 0.0 0.00 0.00 0.00 25 1010.2
20260902013055 99 0 0.0 0.0 0.00 0.00 0.00 25 1010.2
20260902012532 99 0 0.0 0.0 0.00 0.00 0.00 25 1010.2
20260902012034 99 0 0.0 0.0 0.00 0.00 0.00 25 1010.2
20260902011555 99 0 0.0 0.0 0.00 0.00 0.00 25 1010.1
20260902011033 99 0 0.0 0.0 0.00 0.00 0.00 25 1010.1
20260902010533 99 0 0.0 0.0 0.00 0.00 0.00 25 1010.1
20260902005536 99 0 0.0 0.0 0.00 0.00 0.00 25 1010.3
20260902005030 99 0 0.0 0.0 0.00 0.00 0.00 25 1010.3
20260902004550 99 0 0.0 0.0 0.00 0.00 0.00 25 1010.4
20260902004033 99 0 0.0 0.0 0.00 0.00 0.00 25 1010.5
20260902003531 99 0 0.0 0.0 0.00 0.00 0.00 25 1010.5
20260902003047 99 0 0.0 0.0 0.00 0.00 0.00 25 1010.7
20260902002529 99 0 0.0 0.0 0.00 0.00 0.00 26 1010.6
20260902002034 99 0 0.0 0.0 0.00 0.00 0.00 27 1010.7
20260902001607 99 0 0.0 0.0 0.00 0.00 0.00 25 1010.7
20260902001031 99 0 0.0 0.0 0.00 0.00 0.00 25 1010.7
20260902000529 99 0 0.0 0.0 0.00 0.00 0.00 27 1010.7
20260902000056 99 0 0.0 0.0 0.00 0.00 0.00 25 1010.7
20260901235531 99 0 0.0 0.0 0.00 0.00 0.00 25 1010.6
20260901235029 99 0 0.0 0.0 0.00 0.00 0.00 25 1010.8
20260901234548 100 0 0.0 0.0 0.00 0.00 0.00 25 1010.8
20260901234030 100 0 0.0 0.0 0.00 0.00 0.00 25 1010.8
20260901233531 101 0 0.0 0.0 0.00 0.00 0.00 25 1010.9
20260901233046 101 0 0.0 0.0 0.00 0.00 0.00 25 1011.0
20260901232529 102 0 0.0 0.0 0.00 0.00 0.00 23 1011.0
20260901232029 102 0 0.0 0.0 0.00 0.00 0.00 23 1011.1
20260901231545 102 0 0.0 0.0 0.00 0.00 0.00 24 1011.0
20260901231030 102 0 0.0 0.0 0.00 0.00 0.00 23 1011.2
20260901230529 102 0 0.0 0.0 0.00 0.00 0.00 23 1011.2
20260901230044 102 0 0.0 0.0 0.00 0.00 0.00 24 1011.3
20260901225530 102 0 0.0 0.0 0.00 0.00 0.00 24 1011.3
20260901225029 102 0 0.0 0.0 0.00 0.00 0.00 24 1011.3
20260901224601 102 0 0.0 0.0 0.00 0.00 0.00 24 1011.4
20260901224029 102 0 0.0 0.0 0.00 0.00 0.00 23 1011.5
20260901223530 102 0 0.0 0.0 0.00 0.00 0.00 24 1011.5
20260901223054 102 0 0.0 0.0 0.00 0.00 0.00 24 1011.5
20260901222529 102 0 0.0 0.0 0.00 0.00 0.00 24 1011.5
20260901222028 102 0 0.0 0.0 0.00 0.00 0.00 25 1011.7
20260901221556 102 0 0.0 0.0 0.00 0.00 0.00 25 1011.6
20260901221029 102 0 0.0 0.0 0.00 0.00 0.00 25 1011.7
20260901220528 102 0 0.0 0.0 0.00 0.00 0.00 25 1011.8
20260901220054 102 0 0.0 0.0 0.00 0.00 0.00 25 1011.8
20260901215530 102 0 0.0 0.0 0.00 0.00 0.00 25 1011.9
20260901215029 102 0 0.0 0.0 0.00 0.00 0.00 25 1012.0
20260901214601 102 0 0.0 0.0 0.00 0.00 0.00 24 1012.0
20260901214031 102 0 0.0 0.0 0.00 0.00 0.00 24 1012.1
20260901213531 102 0 0.0 0.0 0.00 0.00 0.00 25 1012.2
20260901213055 101 0 0.0 0.0 0.00 0.00 0.00 25 1012.3
20260901212530 101 0 0.0 0.0 0.00 0.00 0.00 25 1012.4
20260901212030 101 0 0.0 1.0 0.00 0.00 0.00 25 1012.5
20260901211548 101 0 0.0 1.0 0.00 0.00 0.00 26 1012.6
20260901211033 100 0 0.0 1.0 0.00 0.00 0.00 25 1012.4
20260901210532 100 0 0.0 0.0 0.00 0.00 0.00 25 1012.9
20260901210113 100 0 0.0 0.0 0.00 0.00 0.00 26 1013.0
20260901205529 100 0 0.0 0.0 0.00 0.00 0.00 26 1013.1
20260901205033 100 0 0.0 0.0 0.00 0.00 0.00 27 1013.1